When you browse on this site, cookies collect data to enhance your experience and personalize the content and advertising you see.
Visit our Privacy Policy to learn more. By continuing to use the site, you agree to this use of cookies and data.
  • en Suisse
  • Liste des pays
  • À 7 jours
  • Température de l'eau
  • Carte satellitaire
  • Carte météo
  • Widgets météo
  • user-avatar
    Se connecter

    Météo par heure à Oran

    Ce jour, 21 Mai, Mardi

    Heure Température Précipitation Vent Pression Humidité
    00:00 +20°C° 0 mm 1 m/s 750 mmHg 63%
    01:00 +20°C° 0 mm 1 m/s 749 mmHg 64%
    02:00 +20°C° 0 mm 1 m/s 749 mmHg 66%
    03:00 +19°C° 0 mm 1 m/s 749 mmHg 67%
    04:00 +20°C° 0 mm 1 m/s 749 mmHg 65%
    05:00 +20°C° 0 mm 1 m/s 750 mmHg 62%
    06:00 +20°C° 0 mm 2 m/s 750 mmHg 59%
    07:00 +21°C° 0 mm 2 m/s 750 mmHg 53%
    08:00 +23°C° 0 mm 2 m/s 750 mmHg 47%
    09:00 +24°C° 0 mm 3 m/s 750 mmHg 41%
    10:00 +25°C° 0 mm 3 m/s 750 mmHg 39%
    11:00 +26°C° 0 mm 3 m/s 751 mmHg 37%
    12:00 +27°C° 0 mm 4 m/s 751 mmHg 36%
    13:00 +27°C° 0 mm 4 m/s 751 mmHg 37%
    14:00 +27°C° 0 mm 4 m/s 750 mmHg 37%
    15:00 +27°C° 0 mm 4 m/s 750 mmHg 38%
    16:00 +26°C° 0 mm 3 m/s 750 mmHg 40%
    17:00 +25°C° 0 mm 2 m/s 750 mmHg 42%
    18:00 +25°C° 0 mm 2 m/s 750 mmHg 43%
    19:00 +24°C° 0 mm 1 m/s 751 mmHg 47%
    20:00 +23°C° 0 mm 1 m/s 751 mmHg 51%
    21:00 +20°C° 0 mm 0 m/s 751 mmHg 55%
    22:00 +20°C° 0 mm 0 m/s 751 mmHg 57%
    23:00 +21°C° 0 mm 1 m/s 752 mmHg 59%

    Demain, 22 Mai, Mercredi

    Heure Température Précipitation Vent Pression Humidité
    00:00 +21°C° 0 mm 1 m/s 752 mmHg 61%
    01:00 +20°C° 0 mm 1 m/s 752 mmHg 64%
    02:00 +18°C° 0 mm 0 m/s 752 mmHg 67%
    03:00 +17°C° 0 mm 0 m/s 751 mmHg 70%
    04:00 +18°C° 0 mm 0 m/s 752 mmHg 68%
    05:00 +18°C° 0 mm 0 m/s 752 mmHg 66%
    06:00 +19°C° 0 mm 0 m/s 752 mmHg 63%
    07:00 +20°C° 0 mm 0 m/s 752 mmHg 57%
    08:00 +21°C° 0 mm 0 m/s 753 mmHg 50%
    09:00 +22°C° 0 mm 0 m/s 753 mmHg 43%
    10:00 +25°C° 0 mm 2 m/s 753 mmHg 41%
    11:00 +27°C° 0 mm 3 m/s 753 mmHg 38%
    12:00 +28°C° 0 mm 4 m/s 753 mmHg 35%
    13:00 +28°C° 0 mm 5 m/s 752 mmHg 35%
    14:00 +28°C° 0 mm 5 m/s 752 mmHg 35%
    15:00 +28°C° 0 mm 6 m/s 752 mmHg 35%
    16:00 +27°C° 0 mm 5 m/s 752 mmHg 37%
    17:00 +26°C° 0 mm 5 m/s 752 mmHg 39%
    18:00 +25°C° 0 mm 5 m/s 752 mmHg 41%
    19:00 +25°C° 0 mm 4 m/s 752 mmHg 45%
    20:00 +23°C° 0 mm 4 m/s 752 mmHg 49%
    21:00 +22°C° 0 mm 3 m/s 753 mmHg 53%
    22:00 +21°C° 0 mm 2 m/s 753 mmHg 54%
    23:00 +21°C° 0 mm 2 m/s 753 mmHg 55%

    Après-demain, 23 Mai, Jeudi

    Heure Température Précipitation Vent Pression Humidité
    00:00 +21°C° 0 mm 1 m/s 753 mmHg 57%
    01:00 +21°C° 0 mm 1 m/s 753 mmHg 57%
    02:00 +21°C° 0 mm 1 m/s 752 mmHg 58%
    03:00 +20°C° 0 mm 1 m/s 752 mmHg 58%
    04:00 +21°C° 0 mm 1 m/s 752 mmHg 57%
    05:00 +21°C° 0 mm 1 m/s 752 mmHg 56%
    06:00 +22°C° 0 mm 1 m/s 752 mmHg 54%
    07:00 +24°C° 0 mm 2 m/s 752 mmHg 48%
    08:00 +25°C° 0 mm 2 m/s 752 mmHg 42%
    09:00 +27°C° 0 mm 3 m/s 753 mmHg 36%
    10:00 +28°C° 0 mm 3 m/s 752 mmHg 33%
    11:00 +29°C° 0 mm 4 m/s 752 mmHg 30%
    12:00 +30°C° 0 mm 5 m/s 752 mmHg 27%
    13:00 +30°C° 0 mm 5 m/s 752 mmHg 27%
    14:00 +30°C° 0 mm 5 m/s 751 mmHg 27%
    15:00 +30°C° 0 mm 6 m/s 751 mmHg 27%
    16:00 +29°C° 0 mm 5 m/s 751 mmHg 29%
    17:00 +28°C° 0 mm 5 m/s 750 mmHg 31%
    18:00 +28°C° 0 mm 5 m/s 750 mmHg 33%
    19:00 +26°C° 0 mm 4 m/s 750 mmHg 36%
    20:00 +25°C° 0 mm 3 m/s 751 mmHg 39%
    21:00 +24°C° 0 mm 2 m/s 751 mmHg 42%
    22:00 +24°C° 0 mm 1 m/s 751 mmHg 44%
    23:00 +23°C° 0 mm 1 m/s 750 mmHg 45%

    24 Mai, Vendredi

    Heure Température Précipitation Vent Pression Humidité
    00:00 +21°C° 0 mm 0 m/s 750 mmHg 46%
    01:00 +22°C° 0 mm 1 m/s 750 mmHg 46%
    02:00 +22°C° 0 mm 1 m/s 750 mmHg 45%
    03:00 +21°C° 0 mm 2 m/s 750 mmHg 45%
    04:00 +21°C° 0 mm 2 m/s 749 mmHg 46%
    05:00 +22°C° 0 mm 1 m/s 749 mmHg 48%
    06:00 +22°C° 0 mm 1 m/s 749 mmHg 49%
    07:00 +24°C° 0 mm 1 m/s 749 mmHg 45%
    08:00 +25°C° 0 mm 1 m/s 749 mmHg 41%
    09:00 +27°C° 0 mm 2 m/s 749 mmHg 36%
    10:00 +28°C° 0 mm 2 m/s 749 mmHg 34%
    11:00 +29°C° 0 mm 2 m/s 749 mmHg 31%
    12:00 +30°C° 0 mm 3 m/s 748 mmHg 29%
    13:00 +30°C° 0 mm 3 m/s 748 mmHg 30%
    14:00 +29°C° 0 mm 4 m/s 748 mmHg 31%
    15:00 +29°C° 0 mm 4 m/s 747 mmHg 32%
    16:00 +28°C° 0 mm 4 m/s 747 mmHg 36%
    17:00 +26°C° 0 mm 4 m/s 747 mmHg 40%
    18:00 +25°C° 0 mm 4 m/s 747 mmHg 44%
    19:00 +23°C° 0 mm 4 m/s 748 mmHg 50%
    20:00 +22°C° 0 mm 4 m/s 748 mmHg 56%
    21:00 +21°C° 0 mm 4 m/s 748 mmHg 62%
    22:00 +21°C° 0 mm 4 m/s 748 mmHg 67%
    23:00 +20°C° 0 mm 5 m/s 748 mmHg 72%

    25 Mai, Samedi

    Heure Température Précipitation Vent Pression Humidité
    00:00 +20°C° 0 mm 6 m/s 748 mmHg 76%
    01:00 +20°C° 0 mm 5 m/s 748 mmHg 77%
    02:00 +20°C° 0 mm 5 m/s 748 mmHg 77%
    03:00 +19°C° 0 mm 5 m/s 748 mmHg 77%
    04:00 +19°C° 0 mm 5 m/s 748 mmHg 77%
    05:00 +19°C° 0 mm 5 m/s 748 mmHg 77%
    06:00 +19°C° 0 mm 5 m/s 749 mmHg 77%
    07:00 +20°C° 0 mm 6 m/s 749 mmHg 74%
    08:00 +20°C° 0 mm 6 m/s 749 mmHg 71%
    09:00 +21°C° 0 mm 6 m/s 750 mmHg 68%
    10:00 +21°C° 0 mm 7 m/s 750 mmHg 64%
    11:00 +22°C° 0 mm 7 m/s 750 mmHg 60%
    12:00 +23°C° 0 mm 7 m/s 749 mmHg 56%
    13:00 +23°C° 0 mm 8 m/s 749 mmHg 58%
    14:00 +22°C° 0 mm 8 m/s 749 mmHg 59%
    15:00 +22°C° 0 mm 8 m/s 749 mmHg 61%
    16:00 +22°C° 0 mm 8 m/s 749 mmHg 64%
    17:00 +21°C° 0 mm 7 m/s 750 mmHg 67%
    18:00 +20°C° 0 mm 7 m/s 750 mmHg 70%
    19:00 +20°C° 0 mm 7 m/s 750 mmHg 72%
    20:00 +19°C° 0 mm 6 m/s 751 mmHg 74%
    21:00 +19°C° 0 mm 6 m/s 752 mmHg 76%
    22:00 +19°C° 0 mm 5 m/s 751 mmHg 77%
    23:00 +19°C° 0 mm 5 m/s 751 mmHg 78%

    26 Mai, Dimanche

    Heure Température Précipitation Vent Pression Humidité
    00:00 +17°C° 0 mm 5 m/s 751 mmHg 79%
    01:00 +17°C° 0.3 mm 5 m/s 751 mmHg 81%
    02:00 +17°C° 0.3 mm 5 m/s 751 mmHg 82%
    03:00 +17°C° 0.3 mm 5 m/s 751 mmHg 83%
    04:00 +17°C° 0.4 mm 5 m/s 751 mmHg 82%
    05:00 +17°C° 0.4 mm 6 m/s 751 mmHg 81%
    06:00 +17°C° 0.4 mm 6 m/s 751 mmHg 80%
    07:00 +18°C° 0.6 mm 7 m/s 751 mmHg 76%
    08:00 +20°C° 0.6 mm 7 m/s 752 mmHg 73%
    09:00 +20°C° 0.6 mm 8 m/s 752 mmHg 69%
    10:00 +21°C° 0.4 mm 8 m/s 752 mmHg 68%
    11:00 +21°C° 0.4 mm 8 m/s 752 mmHg 67%
    12:00 +21°C° 0.4 mm 8 m/s 752 mmHg 65%
    13:00 +21°C° 0.1 mm 8 m/s 752 mmHg 65%
    14:00 +22°C° 0.1 mm 8 m/s 752 mmHg 64%
    15:00 +22°C° 0.1 mm 8 m/s 752 mmHg 63%
    16:00 +21°C° 0 mm 7 m/s 752 mmHg 65%
    17:00 +21°C° 0 mm 7 m/s 752 mmHg 67%
    18:00 +20°C° 0 mm 6 m/s 752 mmHg 70%
    19:00 +20°C° 0 mm 5 m/s 752 mmHg 73%
    20:00 +19°C° 0 mm 4 m/s 753 mmHg 76%
    21:00 +19°C° 0 mm 3 m/s 753 mmHg 79%
    22:00 +19°C° 0 mm 2 m/s 753 mmHg 81%
    23:00 +19°C° 0 mm 1 m/s 753 mmHg 83%
    Voir plus